RH
35 37 41 42 44 43 51 52 70 73 72 73 80 72 75 63 66 72 71 66 72 80 70 75 73 74 78 72 70 76 66 65
35 58 35 39 44 43 53 53 65 69 65 76 81 75 78 65 65 72 75 71 77 77 79 83 84 68 77 76 75 76 78 62
40 46 46 41 46 45 53 55 60 64 55 72 76 73 77 65 73 70 80 77 79 79 83 83 83 86 86 82 78 80 75 63
43 37 38 43 46 47 53 58 58 59 56 69 77 70 79 75 76 77 78 79 76 79 82 83 82 83 86 88 81 72 68 72
42 38 36 48 47 47 49 59 59 57 57 57 62 61 64 69 76 85 80 81 78 78 80 80 82 87 88 85 84 81 75 74
42 40 39 44 48 50 48 62 60 57 62 56 62 62 63 72 76 77 83 87 80 78 82 83 80 86 87 82 87 83 78 79
42 40 38 42 48 51 50 60 63 58 64 58 64 69 72 74 78 79 83 89 87 82 80 86 84 84 87 86 86 83 80 78
52 52 50 59 58 53 54 59 66 63 61 72 68 69 71 82 78 78 87 93 92 88 87 88 86 80 83 84 86 83 81 83
55 62 67 68 64 59 61 65 67 66 62 82 69 74 71 84 78 79 80 79 85 89 87 85 80 78 78 80 84 86 83 82
82 77 74 89 76 79 75 74 71 74 70 88 92 87 89 86 83 82 83 84 80 88 88 84 82 78 77 79 84 80 81 85
93 93 90 85 94 87 84 85 80 79 78 84 91 90 93 92 89 88 89 91 83 87 88 86 86 77 75 74 81 80 86 88
94 93 93 75 97 98 97 90 87 90 86 87 91 98 98 97 95 94 91 90 86 88 86 81 80 75 78 78 78 77 82 78
87 85 91 91 94 92 93 94 98 96 95 96 98 98 97 97 96 96 93 94 91 84 82 79 79 80 79 77 76 74 78 75
65 71 80 92 96 98 89 95 97 99 98 99 99 99 99 99 98 97 96 94 92 87 84 82 85 83 73 80 68 72 70 66
57 60 61 75 88 91 94 98 99 99 98 99 99 99 99 99 99 98 96 90 90 88 87 82 84 81 73 62 62 70 66 63
48 55 53 52 78 83 88 92 97 97 98 99 99 99 98 98 98 99 97 96 95 92 88 83 81 78 68 67 64 66 70 65
42 44 48 52 51 63 78 87 90 92 96 98 99 99 99 99 98 98 98 97 96 91 86 85 84 66 80 78 72 67 57 61
35 36 37 44 57 61 82 88 88 89 92 94 96 98 99 99 99 98 99 98 93 91 85 84 83 78 84 80 77 65 69 72
36 38 36 36 47 48 57 71 75 80 87 91 91 96 99 99 99 98 98 96 94 94 92 86 84 76 84 82 82 69 74 74
Wind_Speed
14 18 24 23 23 22 21 15 10 9 6 5 4 4 4 8 7 5 6 5 6 6 6 6 7 7 5 7 8 5 7 6
14 10 21 21 23 23 20 21 15 9 7 5 4 6 3 5 8 8 8 6 7 7 4 6 6 7 6 6 5 8 4 8
14 17 10 22 25 25 21 22 20 13 10 5 4 5 3 5 6 7 8 8 8 7 6 5 6 5 7 7 6 4 3 5
20 23 20 21 26 27 24 24 22 18 17 7 4 4 3 4 7 6 6 8 7 8 7 6 6 5 6 5 6 8 7 1
25 26 24 21 23 22 23 23 23 19 20 16 14 12 9 7 7 5 7 7 8 7 7 7 7 5 6 5 5 5 6 6
28 27 27 21 23 23 23 21 22 21 17 18 13 13 9 9 8 12 8 6 8 7 7 8 7 5 6 7 5 6 4 5
29 27 26 18 21 21 19 20 20 20 17 18 16 15 13 12 12 10 8 5 5 7 8 7 7 6 7 6 6 7 6 5
22 21 19 14 17 21 20 22 20 19 17 10 15 18 17 14 14 11 10 5 4 6 7 7 6 6 7 6 7 6 6 5
23 20 15 11 14 19 18 20 20 20 20 10 12 13 11 11 14 12 10 9 7 7 7 7 8 7 7 6 4 4 5 3
15 17 19 10 7 9 12 12 14 16 17 8 7 7 8 10 11 13 10 9 9 8 8 7 7 7 8 8 4 6 6 6
12 7 2 5 7 1 8 11 12 15 17 12 8 9 8 9 11 13 11 9 12 11 8 5 5 6 7 8 5 5 6 4
11 10 7 10 6 8 4 4 13 12 13 14 12 8 7 7 10 10 14 12 12 11 9 10 8 7 6 6 6 6 6 4
10 12 12 9 10 11 15 9 12 6 7 9 10 10 10 10 11 12 13 13 10 11 11 6 8 7 6 6 7 6 7 5
10 10 12 12 9 8 7 7 9 4 6 7 7 10 5 6 11 11 8 10 12 11 11 10 9 6 7 5 6 7 7 8
11 9 8 12 9 8 7 5 6 3 11 12 1 8 8 8 6 14 13 11 12 11 11 12 10 8 6 6 6 6 5 3
13 10 8 7 10 8 8 8 8 6 6 9 7 8 10 11 10 7 9 13 10 10 9 8 8 8 6 7 7 7 7 8
15 13 12 11 9 9 10 8 9 8 7 7 6 8 7 8 8 8 9 9 9 9 8 9 9 6 10 10 8 7 8 9
14 12 12 10 9 7 8 10 9 10 9 8 7 6 6 6 7 8 7 8 9 9 9 8 8 5 10 10 10 5 5 7
11 8 10 12 10 13 13 10 9 10 10 9 7 6 5 5 6 7 8 8 9 9 8 7 7 6 10 11 8 6 5 6
Wind_Direction
179 157 162 165 164 163 154 161 159 154 157 135 121 157 146 161 162 169 154 166 131 128 131 122 111 116 114 122 129 121 133 126
179 173 164 162 164 164 158 161 163 153 166 146 146 177 155 176 162 164 142 131 112 112 125 126 117 138 154 142 124 127 67 120
171 177 167 162 168 166 162 167 167 161 172 161 151 169 156 160 151 158 144 136 126 129 136 134 110 122 127 130 135 109 102 149
171 179 192 172 171 169 166 168 170 166 170 162 146 163 115 125 145 147 147 138 142 132 154 143 121 133 138 137 138 130 151 192
176 178 185 173 172 170 168 168 172 173 172 176 175 179 177 152 157 147 149 142 146 140 143 138 131 141 138 144 144 141 137 160
183 181 180 167 169 174 176 168 171 173 179 184 178 174 167 148 149 148 151 147 145 145 137 136 131 131 145 152 152 146 153 151
182 183 179 169 171 171 172 171 178 180 175 189 186 169 158 154 154 154 160 154 149 148 141 145 148 147 163 167 172 165 161 161
177 175 177 167 164 178 178 176 176 179 190 200 186 169 163 155 158 154 155 151 142 164 144 150 152 149 158 156 162 167 166 164
168 163 154 177 186 177 184 178 176 176 187 190 196 177 168 164 160 155 162 166 159 155 151 150 156 153 154 150 141 148 144 162
144 148 157 134 177 197 164 174 178 178 183 172 173 176 155 169 159 157 156 151 154 150 150 159 155 150 143 138 160 163 168 170
82 88 108 135 109 225 174 158 172 182 179 176 175 173 153 147 143 151 145 144 147 141 137 130 155 144 147 146 164 168 170 168
59 72 48 180 133 127 348 249 172 175 185 176 165 130 131 128 132 140 138 142 147 137 137 157 170 156 142 142 150 144 146 142
81 67 73 135 155 171 176 272 258 222 186 162 162 150 150 153 143 137 138 142 139 144 137 170 141 168 138 147 159 151 147 165
94 83 82 86 94 86 162 246 223 203 191 110 135 129 119 137 139 135 137 150 147 155 152 169 172 158 162 193 151 155 163 163
84 68 83 103 101 100 94 78 69 67 137 118 270 150 132 134 184 148 149 151 154 159 169 169 169 169 167 166 144 153 172 127
65 55 44 95 116 105 99 82 72 74 75 104 133 127 141 142 139 135 146 150 158 165 157 167 162 163 159 153 155 147 126 131
52 39 37 40 59 124 113 109 103 85 85 81 70 84 99 118 125 145 155 146 159 154 160 176 161 167 150 155 148 149 178 164
52 34 17 12 48 82 123 119 116 109 100 83 75 78 97 113 132 145 142 143 147 157 160 156 175 163 161 165 174 162 158 157
54 37 17 7 24 58 71 101 103 103 103 107 107 100 103 106 124 135 146 152 156 155 161 170 171 185 175 182 179 163 158 159